QPF
0.00 0.00 0.00 0.00 0.00 0.00 0.00 0.00 0.00 0.00 0.00 0.00 0.00 0.00 0.00 0.00 0.00 0.00 0.00 0.00 0.00 0.00 0.00 0.00 0.00 0.00 0.00 0.00 0.00 0.00 0.00 0.00 0.00 0.00 0.00 0.00 0.00 0.00 0.00 0.00 0.00 0.00 0.00 0.00
0.00 0.00 0.00 0.00 0.00 0.00 0.00 0.00 0.00 0.00 0.00 0.00 0.00 0.00 0.00 0.00 0.00 0.00 0.00 0.00 0.00 0.00 0.00 0.00 0.00 0.00 0.00 0.00 0.00 0.00 0.00 0.00 0.00 0.00 0.00 0.00 0.00 0.00 0.00 0.00 0.00 0.00 0.00 0.00
0.00 0.00 0.00 0.00 0.00 0.00 0.00 0.00 0.00 0.00 0.00 0.00 0.00 0.00 0.00 0.00 0.00 0.00 0.00 0.00 0.00 0.00 0.00 0.00 0.00 0.00 0.00 0.00 0.00 0.00 0.00 0.00 0.00 0.00 0.00 0.00 0.00 0.00 0.00 0.00 0.00 0.00 0.00 0.00
0.00 0.00 0.00 0.00 0.00 0.00 0.00 0.00 0.00 0.00 0.00 0.00 0.00 0.00 0.00 0.00 0.00 0.00 0.00 0.00 0.00 0.00 0.00 0.00 0.00 0.00 0.00 0.00 0.00 0.00 0.00 0.00 0.00 0.00 0.00 0.00 0.00 0.00 0.00 0.00 0.00 0.00 0.00 0.00
0.01 0.00 0.00 0.00 0.00 0.00 0.00 0.00 0.00 0.00 0.00 0.00 0.00 0.00 0.00 0.00 0.00 0.00 0.00 0.00 0.00 0.00 0.00 0.00 0.00 0.00 0.00 0.00 0.00 0.00 0.00 0.00 0.00 0.00 0.00 0.00 0.00 0.00 0.00 0.00 0.00 0.00 0.00 0.00
0.01 0.01 0.00 0.00 0.00 0.00 0.00 0.00 0.00 0.00 0.00 0.00 0.00 0.00 0.00 0.00 0.00 0.00 0.00 0.00 0.00 0.00 0.00 0.00 0.00 0.00 0.00 0.00 0.00 0.00 0.00 0.00 0.00 0.00 0.00 0.00 0.00 0.00 0.00 0.00 0.00 0.00 0.00 0.00
0.01 0.00 0.00 0.00 0.00 0.00 0.00 0.00 0.00 0.00 0.00 0.00 0.00 0.00 0.00 0.00 0.00 0.00 0.00 0.00 0.00 0.00 0.00 0.00 0.00 0.00 0.00 0.00 0.00 0.00 0.00 0.00 0.00 0.00 0.00 0.00 0.00 0.00 0.00 0.00 0.00 0.00 0.00 0.00
0.01 0.01 0.00 0.00 0.00 0.00 0.00 0.00 0.00 0.00 0.00 0.00 0.00 0.00 0.00 0.00 0.00 0.00 0.00 0.00 0.00 0.00 0.00 0.00 0.00 0.00 0.00 0.00 0.00 0.00 0.00 0.00 0.00 0.00 0.00 0.00 0.00 0.00 0.00 0.00 0.00 0.00 0.00 0.00
0.01 0.00 0.00 0.00 0.00 0.00 0.00 0.00 0.00 0.00 0.00 0.00 0.00 0.00 0.00 0.00 0.00 0.00 0.00 0.00 0.00 0.00 0.00 0.00 0.00 0.00 0.00 0.00 0.00 0.00 0.00 0.00 0.00 0.00 0.00 0.00 0.00 0.00 0.00 0.00 0.00 0.00 0.00 0.00
0.01 0.00 0.00 0.00 0.00 0.00 0.00 0.00 0.00 0.00 0.00 0.00 0.00 0.00 0.00 0.00 0.00 0.00 0.00 0.00 0.00 0.00 0.00 0.00 0.00 0.00 0.00 0.00 0.00 0.00 0.00 0.00 0.00 0.00 0.00 0.00 0.00 0.00 0.00 0.00 0.00 0.00 0.00 0.00
0.00 0.00 0.00 0.00 0.00 0.00 0.00 0.00 0.00 0.00 0.00 0.00 0.00 0.00 0.00 0.00 0.00 0.00 0.00 0.00 0.00 0.00 0.00 0.00 0.00 0.00 0.00 0.00 0.00 0.00 0.00 0.00 0.00 0.00 0.00 0.00 0.00 0.00 0.00 0.00 0.00 0.00 0.00 0.00
0.00 0.00 0.00 0.00 0.00 0.00 0.00 0.00 0.00 0.00 0.00 0.00 0.00 0.00 0.00 0.00 0.00 0.00 0.00 0.00 0.00 0.00 0.00 0.00 0.00 0.00 0.00 0.00 0.00 0.00 0.00 0.00 0.00 0.00 0.00 0.00 0.00 0.00 0.00 0.00 0.00 0.00 0.00 0.00
0.00 0.00 0.00 0.00 0.00 0.00 0.00 0.00 0.00 0.00 0.00 0.00 0.00 0.00 0.00 0.00 0.00 0.00 0.00 0.00 0.00 0.00 0.00 0.00 0.00 0.00 0.00 0.00 0.00 0.00 0.00 0.00 0.00 0.00 0.00 0.00 0.00 0.00 0.00 0.00 0.00 0.00 0.00 0.00
0.00 0.00 0.00 0.00 0.00 0.00 0.00 0.00 0.00 0.00 0.00 0.00 0.00 0.00 0.00 0.00 0.00 0.00 0.00 0.00 0.00 0.00 0.00 0.00 0.00 0.00 0.00 0.00 0.00 0.00 0.00 0.00 0.00 0.00 0.00 0.00 0.00 0.00 0.00 0.00 0.00 0.00 0.00 0.00
0.00 0.00 0.00 0.00 0.00 0.00 0.00 0.00 0.00 0.00 0.00 0.00 0.00 0.00 0.00 0.00 0.00 0.00 0.00 0.00 0.00 0.00 0.00 0.00 0.00 0.00 0.00 0.00 0.00 0.00 0.00 0.00 0.00 0.00 0.00 0.00 0.00 0.00 0.00 0.00 0.00 0.00 0.00 0.00
0.00 0.00 0.00 0.00 0.00 0.00 0.00 0.00 0.00 0.00 0.00 0.00 0.00 0.00 0.00 0.00 0.00 0.00 0.00 0.00 0.00 0.00 0.00 0.00 0.00 0.00 0.00 0.00 0.00 0.00 0.00 0.00 0.00 0.00 0.00 0.00 0.00 0.00 0.00 0.00 0.00 0.00 0.00 0.00
0.00 0.00 0.00 0.00 0.00 0.00 0.00 0.00 0.00 0.00 0.00 0.00 0.00 0.00 0.00 0.00 0.00 0.00 0.00 0.00 0.00 0.00 0.00 0.00 0.00 0.00 0.00 0.00 0.00 0.00 0.00 0.00 0.00 0.00 0.00 0.00 0.00 0.00 0.00 0.01 0.01 0.01 0.00 0.00
0.00 0.00 0.00 0.00 0.00 0.00 0.00 0.00 0.00 0.00 0.00 0.00 0.00 0.00 0.00 0.00 0.00 0.00 0.00 0.00 0.00 0.00 0.00 0.00 0.00 0.00 0.00 0.00 0.00 0.00 0.00 0.00 0.00 0.00 0.00 0.00 0.00 0.01 0.01 0.01 0.01 0.00 0.00 0.00
0.00 0.00 0.00 0.00 0.00 0.00 0.00 0.00 0.00 0.00 0.00 0.00 0.00 0.00 0.00 0.00 0.00 0.00 0.00 0.00 0.00 0.00 0.00 0.00 0.00 0.00 0.00 0.00 0.00 0.00 0.00 0.00 0.00 0.00 0.00 0.00 0.00 0.00 0.00 0.01 0.01 0.00 0.00 0.00
0.00 0.00 0.00 0.00 0.00 0.00 0.00 0.00 0.00 0.00 0.00 0.00 0.00 0.00 0.00 0.00 0.00 0.00 0.00 0.00 0.00 0.00 0.00 0.00 0.00 0.00 0.00 0.00 0.00 0.00 0.00 0.00 0.00 0.00 0.00 0.00 0.01 0.01 0.01 0.01 0.01 0.01 0.01 0.00
0.00 0.00 0.00 0.00 0.00 0.00 0.00 0.00 0.00 0.00 0.00 0.00 0.00 0.00 0.00 0.00 0.00 0.00 0.00 0.00 0.00 0.00 0.00 0.00 0.00 0.00 0.00 0.00 0.01 0.00 0.00 0.00 0.00 0.00 0.01 0.01 0.01 0.01 0.01 0.01 0.00 0.00 0.00 0.00
0.00 0.00 0.00 0.00 0.00 0.00 0.00 0.00 0.00 0.00 0.00 0.00 0.00 0.00 0.00 0.00 0.00 0.00 0.00 0.00 0.00 0.00 0.00 0.00 0.00 0.00 0.00 0.01 0.00 0.00 0.00 0.00 0.00 0.00 0.00 0.01 0.01 0.01 0.01 0.00 0.00 0.00 0.00 0.00
0.00 0.00 0.00 0.00 0.00 0.00 0.00 0.00 0.00 0.00 0.00 0.00 0.00 0.00 0.00 0.00 0.00 0.00 0.00 0.00 0.00 0.00 0.00 0.00 0.00 0.00 0.00 0.00 0.00 0.00 0.00 0.00 0.00 0.00 0.00 0.00 0.01 0.01 0.01 0.01 0.01 0.01 0.01 0.01
0.00 0.00 0.00 0.00 0.00 0.00 0.00 0.00 0.00 0.00 0.00 0.00 0.00 0.00 0.00 0.00 0.00 0.00 0.00 0.00 0.00 0.00 0.00 0.00 0.00 0.00 0.00 0.00 0.00 0.00 0.00 0.00 0.00 0.00 0.01 0.01 0.01 0.01 0.01 0.01 0.01 0.01 0.01 0.01
0.00 0.00 0.00 0.00 0.00 0.00 0.00 0.00 0.00 0.00 0.00 0.00 0.00 0.00 0.00 0.00 0.00 0.00 0.00 0.00 0.00 0.00 0.00 0.00 0.00 0.00 0.00 0.00 0.00 0.00 0.00 0.00 0.00 0.01 0.01 0.01 0.01 0.01 0.01 0.01 0.01 0.01 0.01 0.01
0.01 0.01 0.01 0.01 0.01 0.00 0.00 0.00 0.00 0.01 0.01 0.01 0.01 0.01 0.01 0.00 0.00 0.00 0.00 0.00 0.00 0.00 0.00 0.00 0.00 0.00 0.00 0.00 0.00 0.00 0.00 0.00 0.00 0.00 0.00 0.01 0.01 0.01 0.01 0.01 0.01 0.01 0.01 0.01
0.01 0.01 0.01 0.01 0.01 0.01 0.01 0.01 0.01 0.01 0.01 0.01 0.01 0.01 0.00 0.00 0.00 0.00 0.00 0.00 0.00 0.00 0.00 0.00 0.00 0.00 0.00 0.00 0.00 0.00 0.00 0.00 0.00 0.00 0.00 0.01 0.01 0.01 0.01 0.01 0.01 0.01 0.01 0.01
MSLP
1014.93 1015.40 1015.76 1015.99 1016.07 1016.00 1015.77 1015.39 1014.88 1014.27 1013.59 1012.89 1012.21 1011.59 1011.07 1010.68 1010.42 1010.31 1010.32 1010.46 1010.70 1011.03 1011.43 1011.90 1012.44 1013.04 1013.72 1014.47 1015.28 1016.13 1016.99 1017.84 1018.64 1019.37 1020.00 1020.52 1020.93 1021.24 1021.47 1021.62 1021.72 1021.78 1021.80 1021.78
1014.61 1014.98 1015.23 1015.35 1015.32 1015.15 1014.86 1014.46 1013.96 1013.40 1012.79 1012.18 1011.59 1011.06 1010.60 1010.23 1009.98 1009.84 1009.81 1009.89 1010.07 1010.35 1010.71 1011.16 1011.70 1012.32 1013.03 1013.82 1014.68 1015.57 1016.48 1017.37 1018.21 1018.97 1019.62 1020.15 1020.56 1020.85 1021.04 1021.15 1021.20 1021.19 1021.15 1021.08
1014.24 1014.50 1014.62 1014.62 1014.48 1014.24 1013.90 1013.48 1013.02 1012.52 1012.01 1011.51 1011.03 1010.59 1010.22 1009.91 1009.68 1009.55 1009.50 1009.54 1009.68 1009.92 1010.24 1010.67 1011.19 1011.81 1012.53 1013.33 1014.20 1015.12 1016.05 1016.96 1017.82 1018.59 1019.24 1019.77 1020.16 1020.42 1020.57 1020.63 1020.62 1020.55 1020.45 1020.32
1013.77 1013.91 1013.91 1013.80 1013.57 1013.26 1012.89 1012.48 1012.07 1011.65 1011.25 1010.88 1010.53 1010.22 1009.95 1009.73 1009.56 1009.45 1009.41 1009.44 1009.56 1009.76 1010.06 1010.46 1010.96 1011.56 1012.26 1013.05 1013.91 1014.81 1015.73 1016.63 1017.47 1018.23 1018.87 1019.37 1019.74 1019.97 1020.08 1020.08 1020.01 1019.88 1019.72 1019.53
1013.17 1013.20 1013.10 1012.89 1012.59 1012.23 1011.86 1011.49 1011.14 1010.82 1010.55 1010.31 1010.11 1009.93 1009.78 1009.66 1009.57 1009.52 1009.51 1009.56 1009.68 1009.87 1010.15 1010.52 1010.99 1011.55 1012.21 1012.96 1013.78 1014.64 1015.51 1016.37 1017.18 1017.89 1018.50 1018.97 1019.30 1019.49 1019.55 1019.51 1019.39 1019.21 1018.99 1018.75
1012.42 1012.37 1012.19 1011.92 1011.57 1011.20 1010.84 1010.52 1010.25 1010.04 1009.89 1009.79 1009.73 1009.69 1009.67 1009.67 1009.67 1009.69 1009.74 1009.83 1009.97 1010.16 1010.43 1010.78 1011.21 1011.74 1012.35 1013.03 1013.78 1014.57 1015.37 1016.16 1016.91 1017.57 1018.12 1018.54 1018.83 1018.98 1019.01 1018.92 1018.76 1018.53 1018.27 1018.00
1011.53 1011.43 1011.22 1010.91 1010.55 1010.20 1009.87 1009.61 1009.43 1009.32 1009.29 1009.31 1009.38 1009.47 1009.57 1009.67 1009.78 1009.89 1010.01 1010.15 1010.32 1010.54 1010.81 1011.15 1011.55 1012.03 1012.58 1013.19 1013.86 1014.56 1015.28 1015.98 1016.64 1017.23 1017.72 1018.08 1018.33 1018.44 1018.43 1018.31 1018.12 1017.87 1017.58 1017.28
1010.53 1010.42 1010.19 1009.89 1009.56 1009.24 1008.97 1008.78 1008.67 1008.66 1008.72 1008.85 1009.02 1009.22 1009.42 1009.63 1009.83 1010.02 1010.22 1010.42 1010.64 1010.90 1011.19 1011.52 1011.91 1012.35 1012.84 1013.38 1013.97 1014.58 1015.20 1015.80 1016.37 1016.87 1017.29 1017.60 1017.79 1017.86 1017.82 1017.68 1017.47 1017.20 1016.91 1016.60
1009.46 1009.36 1009.16 1008.90 1008.62 1008.36 1008.15 1008.03 1007.99 1008.05 1008.18 1008.38 1008.63 1008.91 1009.19 1009.48 1009.76 1010.03 1010.30 1010.58 1010.86 1011.16 1011.48 1011.83 1012.21 1012.63 1013.07 1013.55 1014.06 1014.58 1015.11 1015.62 1016.09 1016.51 1016.85 1017.09 1017.23 1017.26 1017.19 1017.04 1016.82 1016.55 1016.24 1015.93
1008.35 1008.29 1008.15 1007.95 1007.74 1007.55 1007.42 1007.36 1007.38 1007.49 1007.67 1007.92 1008.21 1008.54 1008.88 1009.22 1009.57 1009.91 1010.25 1010.60 1010.95 1011.30 1011.67 1012.04 1012.43 1012.83 1013.25 1013.68 1014.12 1014.57 1015.01 1015.43 1015.82 1016.15 1016.41 1016.59 1016.67 1016.66 1016.57 1016.39 1016.16 1015.89 1015.59 1015.27
1007.24 1007.24 1007.16 1007.05 1006.92 1006.82 1006.76 1006.76 1006.84 1006.99 1007.20 1007.47 1007.79 1008.14 1008.51 1008.90 1009.29 1009.69 1010.10 1010.51 1010.92 1011.33 1011.74 1012.15 1012.56 1012.97 1013.37 1013.77 1014.16 1014.55 1014.92 1015.26 1015.56 1015.82 1016.00 1016.11 1016.13 1016.08 1015.95 1015.75 1015.51 1015.22 1014.92 1014.61
1006.17 1006.23 1006.23 1006.20 1006.18 1006.16 1006.18 1006.25 1006.37 1006.56 1006.79 1007.08 1007.41 1007.77 1008.16 1008.57 1009.01 1009.45 1009.91 1010.38 1010.84 1011.31 1011.77 1012.21 1012.64 1013.06 1013.46 1013.84 1014.20 1014.53 1014.84 1015.11 1015.35 1015.52 1015.63 1015.67 1015.63 1015.52 1015.35 1015.12 1014.84 1014.55 1014.23 1013.91
1005.16 1005.27 1005.36 1005.43 1005.50 1005.58 1005.69 1005.82 1006.00 1006.22 1006.48 1006.78 1007.12 1007.50 1007.90 1008.34 1008.80 1009.28 1009.78 1010.29 1010.80 1011.31 1011.80 1012.28 1012.73 1013.15 1013.54 1013.90 1014.23 1014.52 1014.78 1014.99 1015.15 1015.26 1015.29 1015.26 1015.15 1014.98 1014.75 1014.48 1014.17 1013.85 1013.52 1013.18
1004.24 1004.41 1004.58 1004.75 1004.92 1005.10 1005.29 1005.51 1005.75 1006.01 1006.31 1006.63 1006.99 1007.39 1007.81 1008.27 1008.75 1009.26 1009.79 1010.33 1010.86 1011.39 1011.90 1012.39 1012.84 1013.25 1013.63 1013.97 1014.26 1014.51 1014.72 1014.87 1014.97 1015.00 1014.97 1014.86 1014.68 1014.45 1014.16 1013.83 1013.48 1013.12 1012.76 1012.40
1003.46 1003.69 1003.94 1004.20 1004.47 1004.75 1005.04 1005.33 1005.64 1005.97 1006.31 1006.67 1007.06 1007.48 1007.92 1008.40 1008.91 1009.43 1009.97 1010.52 1011.06 1011.59 1012.09 1012.56 1012.99 1013.38 1013.72 1014.02 1014.27 1014.48 1014.63 1014.72 1014.75 1014.72 1014.61 1014.43 1014.19 1013.88 1013.53 1013.15 1012.75 1012.35 1011.96 1011.58
1002.88 1003.17 1003.49 1003.84 1004.21 1004.58 1004.96 1005.34 1005.72 1006.11 1006.50 1006.91 1007.33 1007.78 1008.26 1008.75 1009.27 1009.80 1010.34 1010.87 1011.39 1011.89 1012.35 1012.78 1013.16 1013.50 1013.79 1014.03 1014.23 1014.37 1014.46 1014.49 1014.46 1014.36 1014.18 1013.94 1013.63 1013.26 1012.86 1012.42 1011.98 1011.54 1011.11 1010.71
1002.58 1002.92 1003.31 1003.74 1004.19 1004.64 1005.10 1005.55 1006.00 1006.44 1006.89 1007.34 1007.81 1008.28 1008.78 1009.28 1009.80 1010.32 1010.83 1011.33 1011.81 1012.25 1012.65 1013.01 1013.32 1013.58 1013.80 1013.97 1014.09 1014.16 1014.19 1014.15 1014.05 1013.89 1013.66 1013.35 1012.99 1012.57 1012.12 1011.64 1011.16 1010.69 1010.24 1009.82
1002.61 1003.01 1003.46 1003.94 1004.45 1004.96 1005.48 1005.98 1006.48 1006.97 1007.46 1007.94 1008.43 1008.93 1009.43 1009.93 1010.43 1010.92 1011.39 1011.83 1012.24 1012.60 1012.92 1013.19 1013.40 1013.58 1013.70 1013.79 1013.83 1013.83 1013.78 1013.68 1013.52 1013.30 1013.02 1012.67 1012.26 1011.81 1011.32 1010.81 1010.31 1009.82 1009.35 1008.91
1003.02 1003.46 1003.95 1004.48 1005.02 1005.56 1006.10 1006.63 1007.15 1007.67 1008.17 1008.67 1009.16 1009.65 1010.13 1010.61 1011.07 1011.51 1011.92 1012.29 1012.61 1012.88 1013.09 1013.26 1013.38 1013.45 1013.49 1013.48 1013.44 1013.36 1013.25 1013.08 1012.87 1012.60 1012.27 1011.89 1011.45 1010.98 1010.47 1009.95 1009.43 1008.93 1008.46 1008.02
1003.79 1004.26 1004.77 1005.31 1005.86 1006.40 1006.94 1007.46 1007.98 1008.47 1008.96 1009.44 1009.91 1010.37 1010.82 1011.25 1011.65 1012.02 1012.35 1012.63 1012.85 1013.02 1013.14 1013.20 1013.23 1013.20 1013.15 1013.06 1012.94 1012.79 1012.61 1012.39 1012.13 1011.82 1011.46 1011.05 1010.59 1010.11 1009.59 1009.07 1008.55 1008.05 1007.58 1007.14
1004.85 1005.34 1005.85 1006.37 1006.89 1007.41 1007.91 1008.40 1008.88 1009.34 1009.79 1010.22 1010.64 1011.04 1011.43 1011.78 1012.11 1012.39 1012.63 1012.81 1012.94 1013.02 1013.04 1013.01 1012.94 1012.84 1012.70 1012.54 1012.35 1012.15 1011.91 1011.64 1011.34 1010.99 1010.61 1010.18 1009.72 1009.23 1008.72 1008.20 1007.69 1007.19 1006.72 1006.29
1006.08 1006.57 1007.06 1007.55 1008.03 1008.50 1008.95 1009.38 1009.80 1010.20 1010.58 1010.95 1011.29 1011.62 1011.92 1012.19 1012.43 1012.61 1012.76 1012.85 1012.88 1012.87 1012.80 1012.70 1012.55 1012.38 1012.18 1011.96 1011.72 1011.47 1011.18 1010.88 1010.54 1010.17 1009.76 1009.32 1008.85 1008.35 1007.85 1007.34 1006.83 1006.35 1005.88 1005.45
1007.35 1007.83 1008.28 1008.73 1009.16 1009.56 1009.95 1010.32 1010.66 1010.99 1011.30 1011.59 1011.85 1012.09 1012.30 1012.47 1012.61 1012.70 1012.75 1012.75 1012.69 1012.60 1012.46 1012.29 1012.09 1011.87 1011.62 1011.36 1011.08 1010.78 1010.47 1010.12 1009.76 1009.36 1008.93 1008.47 1007.99 1007.50 1006.99 1006.48 1005.99 1005.50 1005.04 1004.60
1008.55 1008.99 1009.41 1009.81 1010.18 1010.53 1010.85 1011.15 1011.43 1011.69 1011.92 1012.12 1012.30 1012.45 1012.57 1012.64 1012.68 1012.68 1012.63 1012.54 1012.41 1012.25 1012.05 1011.83 1011.59 1011.32 1011.04 1010.75 1010.44 1010.11 1009.76 1009.39 1008.99 1008.57 1008.12 1007.64 1007.15 1006.64 1006.13 1005.62 1005.12 1004.64 1004.17 1003.73
1009.58 1009.99 1010.37 1010.72 1011.05 1011.34 1011.61 1011.86 1012.07 1012.26 1012.43 1012.56 1012.66 1012.72 1012.74 1012.73 1012.67 1012.58 1012.44 1012.27 1012.07 1011.85 1011.60 1011.33 1011.05 1010.76 1010.45 1010.13 1009.80 1009.44 1009.07 1008.67 1008.24 1007.79 1007.31 1006.81 1006.30 1005.77 1005.25 1004.72 1004.21 1003.72 1003.24 1002.78
1010.43 1010.81 1011.15 1011.46 1011.74 1012.00 1012.22 1012.42 1012.59 1012.73 1012.83 1012.90 1012.92 1012.91 1012.85 1012.75 1012.60 1012.42 1012.21 1011.97 1011.70 1011.42 1011.12 1010.81 1010.50 1010.18 1009.84 1009.50 1009.14 1008.76 1008.36 1007.93 1007.47 1006.99 1006.48 1005.95 1005.40 1004.85 1004.30 1003.76 1003.23 1002.71 1002.21 1001.73
1011.13 1011.47 1011.78 1012.06 1012.31 1012.53 1012.72 1012.88 1013.00 1013.10 1013.15 1013.15 1013.11 1013.03 1012.89 1012.71 1012.49 1012.23 1011.94 1011.63 1011.30 1010.96 1010.62 1010.27 1009.92 1009.56 1009.20 1008.83 1008.44 1008.03 1007.60 1007.14 1006.64 1006.12 1005.58 1005.01 1004.44 1003.85 1003.27 1002.70 1002.13 1001.58 1001.05 1000.53
Thickness
5613 5611 5610 5611 5609 5606 5608 5617 5617 5627 5629 5637 5640 5640 5641 5641 5639 5635 5634 5630 5626 5624 5622 5618 5613 5608 5602 5596 5589 5582 5575 5569 5563 5556 5549 5542 5535 5528 5522 5516 5509 5503 5497 5492
5598 5597 5598 5600 5606 5607 5607 5613 5616 5619 5625 5638 5638 5636 5633 5634 5632 5629 5629 5626 5622 5618 5616 5612 5608 5602 5596 5590 5583 5575 5569 5562 5555 5547 5540 5533 5526 5519 5513 5506 5500 5494 5488 5483
5593 5589 5584 5592 5609 5608 5608 5612 5614 5615 5627 5633 5629 5627 5627 5628 5626 5624 5623 5621 5618 5614 5610 5606 5602 5596 5590 5583 5575 5568 5561 5554 5546 5539 5531 5524 5516 5510 5503 5497 5491 5485 5480 5474
5583 5578 5572 5613 5620 5618 5614 5616 5617 5619 5625 5626 5625 5624 5623 5621 5620 5620 5617 5614 5611 5607 5603 5599 5594 5587 5581 5574 5566 5559 5552 5545 5537 5530 5522 5514 5507 5501 5494 5488 5482 5477 5471 5466
5576 5582 5592 5604 5608 5608 5606 5612 5621 5617 5619 5619 5615 5610 5617 5615 5612 5611 5609 5606 5603 5599 5595 5589 5583 5577 5570 5563 5556 5549 5542 5536 5528 5520 5513 5505 5498 5492 5485 5479 5473 5467 5461 5455
5572 5575 5580 5610 5613 5608 5604 5607 5623 5617 5615 5613 5604 5606 5615 5608 5602 5599 5596 5593 5590 5587 5583 5577 5571 5565 5559 5553 5547 5540 5533 5525 5517 5510 5503 5496 5490 5482 5475 5469 5463 5457 5451 5445
5575 5576 5593 5608 5600 5598 5595 5612 5619 5615 5613 5608 5604 5609 5605 5597 5592 5587 5584 5580 5577 5574 5570 5565 5559 5554 5549 5543 5536 5529 5521 5513 5506 5499 5493 5486 5479 5472 5465 5458 5452 5447 5442 5436
5574 5573 5586 5599 5592 5599 5612 5614 5611 5609 5607 5604 5601 5596 5590 5586 5580 5575 5571 5568 5565 5562 5557 5551 5546 5542 5538 5531 5523 5515 5508 5501 5494 5488 5481 5474 5468 5461 5454 5447 5441 5436 5431 5425
5588 5596 5605 5600 5603 5607 5606 5605 5605 5603 5601 5597 5591 5587 5581 5576 5571 5566 5562 5557 5553 5549 5543 5538 5534 5531 5526 5517 5509 5502 5496 5490 5483 5476 5469 5463 5457 5450 5443 5436 5429 5424 5418 5412
5581 5590 5593 5593 5596 5596 5596 5598 5598 5596 5593 5589 5585 5581 5574 5568 5563 5557 5550 5545 5540 5536 5532 5526 5521 5516 5511 5503 5496 5491 5485 5478 5471 5465 5459 5452 5445 5438 5431 5424 5417 5410 5404 5398
5580 5585 5584 5586 5589 5592 5590 5588 5586 5585 5584 5581 5578 5573 5567 5561 5554 5547 5539 5533 5529 5525 5520 5513 5507 5502 5496 5490 5484 5479 5473 5467 5460 5453 5447 5441 5434 5427 5420 5413 5403 5396 5389 5383
5586 5590 5589 5593 5593 5589 5583 5581 5580 5577 5573 5570 5568 5564 5558 5551 5544 5536 5529 5522 5516 5512 5507 5501 5495 5489 5483 5477 5472 5467 5461 5455 5448 5442 5435 5429 5423 5417 5408 5399 5391 5382 5374 5366
5587 5585 5585 5584 5583 5581 5579 5577 5573 5570 5567 5562 5557 5553 5547 5539 5530 5524 5517 5511 5506 5501 5495 5489 5483 5477 5470 5464 5459 5454 5449 5442 5436 5429 5423 5417 5410 5404 5399 5392 5381 5372 5363 5354
5572 5573 5571 5572 5572 5570 5568 5565 5561 5557 5553 5550 5545 5539 5533 5526 5518 5512 5507 5500 5494 5488 5482 5476 5471 5464 5458 5452 5446 5441 5435 5428 5422 5417 5410 5403 5397 5390 5383 5377 5371 5364 5353 5343
5564 5566 5568 5564 5560 5556 5553 5551 5548 5544 5539 5534 5530 5526 5521 5515 5508 5501 5494 5487 5481 5475 5470 5464 5458 5452 5446 5440 5434 5428 5423 5417 5411 5405 5397 5390 5383 5375 5368 5361 5354 5348 5341 5332
5556 5552 5551 5551 5550 5546 5544 5543 5541 5536 5530 5524 5518 5513 5508 5502 5494 5487 5480 5475 5470 5464 5458 5452 5446 5440 5434 5428 5422 5417 5411 5404 5397 5391 5385 5377 5370 5362 5354 5346 5339 5332 5326 5318
5547 5544 5543 5542 5541 5538 5536 5535 5532 5526 5519 5513 5506 5499 5493 5487 5481 5474 5467 5462 5457 5451 5445 5440 5434 5427 5421 5416 5410 5405 5400 5393 5384 5378 5371 5364 5356 5348 5340 5332 5324 5317 5311 5303
5550 5549 5546 5543 5538 5531 5524 5520 5516 5511 5505 5499 5492 5487 5482 5477 5471 5462 5455 5449 5443 5438 5433 5427 5421 5415 5409 5404 5398 5393 5387 5381 5373 5366 5359 5351 5343 5335 5327 5318 5311 5304 5298 5291
5534 5533 5531 5527 5524 5519 5513 5507 5502 5496 5490 5485 5481 5476 5469 5463 5455 5448 5442 5437 5433 5428 5421 5414 5408 5403 5398 5392 5385 5381 5375 5368 5361 5354 5346 5339 5331 5323 5314 5306 5299 5292 5286 5280
5517 5516 5513 5509 5505 5501 5497 5492 5487 5482 5477 5472 5466 5460 5453 5446 5440 5435 5430 5425 5421 5416 5408 5402 5397 5392 5386 5380 5373 5368 5362 5355 5348 5341 5333 5326 5318 5310 5302 5295 5287 5281 5275 5269
5502 5500 5496 5492 5487 5484 5481 5478 5474 5468 5462 5457 5453 5446 5439 5432 5426 5421 5418 5414 5407 5401 5395 5390 5385 5379 5373 5368 5362 5356 5350 5342 5335 5327 5320 5312 5304 5297 5290 5283 5277 5271 5265 5260
5487 5484 5481 5477 5473 5468 5464 5461 5457 5452 5446 5441 5435 5429 5423 5418 5413 5409 5404 5400 5395 5388 5383 5378 5373 5367 5361 5356 5350 5344 5336 5329 5321 5314 5306 5299 5292 5285 5279 5273 5267 5262 5257 5253
5472 5468 5465 5461 5457 5451 5446 5443 5439 5435 5431 5426 5421 5416 5412 5407 5402 5398 5393 5387 5381 5376 5371 5366 5360 5355 5349 5344 5337 5330 5323 5315 5308 5301 5294 5287 5280 5274 5269 5264 5259 5255 5251 5247
5455 5451 5446 5442 5439 5435 5429 5424 5420 5417 5413 5409 5405 5400 5397 5393 5389 5384 5379 5373 5368 5363 5358 5353 5347 5342 5336 5330 5324 5317 5309 5302 5295 5288 5282 5276 5270 5265 5260 5255 5251 5248 5244 5241
5436 5432 5429 5427 5424 5419 5413 5407 5403 5400 5397 5394 5390 5386 5382 5379 5375 5370 5365 5360 5355 5350 5345 5340 5334 5328 5322 5316 5310 5303 5296 5290 5283 5277 5272 5267 5262 5257 5253 5249 5245 5242 5239 5237
5421 5418 5415 5412 5408 5404 5399 5396 5393 5388 5385 5381 5377 5373 5369 5364 5360 5356 5351 5347 5341 5337 5332 5327 5321 5315 5309 5303 5297 5290 5284 5279 5273 5267 5262 5257 5254 5249 5246 5243 5240 5237 5235 5233
5404 5401 5398 5394 5390 5387 5385 5382 5378 5374 5370 5367 5363 5359 5355 5351 5347 5342 5338 5333 5328 5324 5319 5314 5308 5303 5297 5291 5285 5279 5273 5268 5264 5259 5255 5251 5247 5244 5241 5238 5236 5234 5232 5230